Weather History for Grand Junction, CO

Change the Weather History Date:

Wednesday, March 27, 2013

  Actual Average Record
Temperature  
Mean Temperature 50 °F 46 °F  
Max Temperature 67 °F 60 °F 77 °F (1988)
Min Temperature 33 °F 33 °F 16 °F (1975)
Degree Days  
Heating Degree Days 15 18  
Month to date heating degree days 608 581  
Since 1 July heating degree days 5371 4960  
Cooling Degree Days 0 0  
Month to date cooling degree days 0 0  
Year to date cooling degree days 0 0  
Moisture  
Dew Point 17 °F    
Average Humidity 37    
Maximum Humidity 61    
Minimum Humidity 12    
Precipitation  
Precipitation 0.00 in 0.03 in 1.00 in (1993)
Month to date precipitation 0.35 0.78  
Year to date precipitation 1.35 1.90  
Snow  
Snow 0.00 in 0.10 in 1.80 in (1901)
Month to date snowfall T 2.3  
Since 1 July snowfall 20.0 17.8  
Snow Depth 0.00 in    
Sea Level Pressure  
Sea Level Pressure 29.91 in    
Wind  
Wind Speed 6 mph (ESE)    
Max Wind Speed 20 mph    
Max Gust Speed 22 mph    
Visibility 10 miles    
Events      
T = Trace of Precipitation, MM = Missing Value Source: NWS Daily Summary

Daily Weather History Graph

Daily Weather History Graph

Search for Another Location

Airport:

Trip Planner

Search our weather history database for the weather conditions in past years. The results will help you decide how hot, cold, wet, or windy it might be!

Date:

Astronomy

Mar. 27, 2013 Rise Set
Actual Time 7:06 AM MDT 7:33 PM MDT
Civil Twilight 6:39 AM MDT 8:00 PM MDT
Nautical Twilight 6:07 AM MDT 8:31 PM MDT
Astronomical Twilight 5:35 AM MDT 9:04 PM MDT
Moon 8:19 PM MDT 6:59 AM MDT
Length of Visible Light 13h 20m
Length of Day
12h 27m
Full, 100% of the Moon is Illuminated
Mar 27
Full
Apr 2
Last Quarter
Apr 10
New
Apr 18
First Quarter
Apr 25
Full

Hourly Weather History & Observations

Time (MDT) Temp. Windchill Dew Point Humidity Pressure Visibility Wind Dir Wind Speed Gust Speed Precip Events Conditions
12:53 AM 45.0 °F - 17.1 °F 33% 29.85 in 10.0 mi Calm Calm - N/A   Clear
1:53 AM 42.1 °F - 18.0 °F 38% 29.86 in 10.0 mi Calm Calm - N/A   Scattered Clouds
2:53 AM 37.9 °F 32.1 °F 18.0 °F 45% 29.88 in 10.0 mi SE 8.1 mph - N/A   Clear
3:53 AM 39.9 °F 37.8 °F 19.0 °F 43% 29.86 in 10.0 mi East 3.5 mph - N/A   Clear
4:53 AM 35.1 °F - 17.1 °F 48% 29.90 in 10.0 mi Calm Calm - N/A   Clear
5:53 AM 33.1 °F 30.0 °F 19.0 °F 56% 29.92 in 10.0 mi ESE 3.5 mph - N/A   Clear
6:53 AM 34.0 °F 29.8 °F 21.0 °F 59% 29.94 in 10.0 mi ESE 4.6 mph - N/A   Clear
7:53 AM 34.0 °F 31.0 °F 21.9 °F 61% 29.98 in 10.0 mi East 3.5 mph - N/A   Clear
8:53 AM 43.0 °F 38.2 °F 25.0 °F 49% 29.99 in 10.0 mi SSE 8.1 mph - N/A   Clear
9:53 AM 50.0 °F - 27.0 °F 41% 29.98 in 10.0 mi SE 8.1 mph - N/A   Clear
10:53 AM 53.1 °F - 23.0 °F 31% 29.96 in 10.0 mi SSE 10.4 mph - N/A   Clear
11:53 AM 55.0 °F - 21.0 °F 27% 29.95 in 10.0 mi Calm Calm - N/A   Clear
12:53 PM 59.0 °F - 17.1 °F 20% 29.92 in 10.0 mi Calm Calm - N/A   Clear
1:53 PM 62.1 °F - 18.0 °F 18% 29.90 in 10.0 mi Variable 5.8 mph - N/A   Partly Cloudy
2:53 PM 64.0 °F - 17.1 °F 16% 29.88 in 10.0 mi Calm Calm - N/A   Clear
3:53 PM 64.9 °F - 15.1 °F 15% 29.86 in 10.0 mi West 8.1 mph - N/A   Clear
4:53 PM 64.9 °F - 12.0 °F 13% 29.86 in 10.0 mi NNW 4.6 mph - N/A   Clear
5:53 PM 64.9 °F - 10.9 °F 12% 29.87 in 10.0 mi WNW 13.8 mph 19.6 mph N/A   Clear
6:53 PM 62.1 °F - 10.9 °F 13% 29.88 in 10.0 mi NW 12.7 mph - N/A   Clear
7:53 PM 55.0 °F - 10.9 °F 17% 29.91 in 10.0 mi NNW 4.6 mph - N/A   Clear
8:53 PM 51.1 °F - 12.0 °F 21% 29.91 in 10.0 mi Calm Calm - N/A   Clear
9:53 PM 50.0 °F - 12.9 °F 23% 29.91 in 10.0 mi East 4.6 mph - N/A   Clear
10:53 PM 48.9 °F - 14.0 °F 25% 29.91 in 10.0 mi East 6.9 mph - N/A   Clear
11:53 PM 48.9 °F - 14.0 °F 25% 29.91 in 10.0 mi ESE 13.8 mph - N/A   Clear